GW5028 Weather Reports


time (UTC)temp
C
wind
direction
speed
KPH
gust
KPH
rain 1hr
cm
rain 24hr
cm
rain mn
cm
humidity
%
barometer
mb
20260508090722 5 154 0.0 0.0 0.00 0.00 0.00 99 1016.6
20260508090219 5 155 0.0 0.0 0.00 0.00 0.00 99 1016.3
20260508085715 5 153 0.0 0.0 0.00 0.00 0.00 99 1016.6
20260508085213 5 155 0.0 0.0 0.00 0.00 0.00 99 1016.5
20260508084708 5 155 0.0 0.0 0.00 0.00 0.00 99 1016.4
20260508084206 5 155 0.0 0.0 0.00 0.00 0.00 99 1016.4
20260508083703 5 158 0.0 0.0 0.00 0.00 0.00 99 1016.4
20260508083201 5 159 0.0 0.0 0.00 0.00 0.00 99 1016.2
20260508082655 5 162 0.0 0.0 0.00 0.00 0.00 99 1016.4
20260508082153 5 159 0.0 0.0 0.00 0.00 0.00 99 1016.4
20260508081651 5 159 0.0 0.0 0.00 0.00 0.00 99 1016.2
20260508081147 5 159 0.0 0.0 0.00 0.00 0.00 99 1016.3
20260508080644 5 159 0.0 0.0 0.00 0.00 0.00 99 1016.1
20260508080142 5 159 0.0 0.0 0.00 0.00 0.00 99 1016.1
20260508075638 6 165 1.6 1.6 0.00 0.00 0.00 99 1016.1
20260508075136 6 149 0.0 0.0 0.00 0.00 0.00 99 1016.2
20260508074633 5 161 0.0 0.0 0.00 0.00 0.00 99 1016.2
20260508074130 5 165 0.0 0.0 0.00 0.00 0.00 99 1016.1
20260508073627 6 166 0.0 0.0 0.00 0.00 0.00 99 1016.2
20260508073125 6 163 0.0 0.0 0.00 0.00 0.00 99 1016.0
20260508072620 6 158 0.0 0.0 0.00 0.00 0.00 99 1016.1
20260508072118 6 163 0.0 0.0 0.00 0.00 0.00 99 1015.6
20260508071615 6 160 0.0 0.0 0.00 0.00 0.00 99 1015.9
20260508071114 6 159 0.0 0.0 0.00 0.00 0.00 99 1015.7
20260508070611 6 159 0.0 0.0 0.00 0.00 0.00 99 1015.9
20260508070109 6 159 0.0 0.0 0.00 0.00 0.00 99 1016.1
20260508065606 6 162 0.0 1.6 0.00 0.00 0.00 99 1015.9
20260508065104 6 152 0.0 0.0 0.00 0.00 0.00 99 1015.6
20260508064601 6 168 0.0 1.6 0.00 0.00 0.00 99 1015.6
20260508064059 6 151 0.0 0.0 0.00 0.00 0.00 99 1015.6
20260508063556 6 150 0.0 0.0 0.00 0.00 0.00 99 1015.7
20260508063054 6 151 0.0 0.0 0.00 0.00 0.00 99 1015.7
20260508062551 6 151 0.0 0.0 0.00 0.00 0.00 99 1016.0
20260508062048 6 151 0.0 0.0 0.00 0.00 0.00 99 1015.9
20260508061546 6 149 0.0 0.0 0.00 0.00 0.00 99 1015.9
20260508061042 6 155 0.0 0.0 0.00 0.00 0.00 99 1015.7
20260508060539 6 162 0.0 0.0 0.00 0.00 0.00 99 1015.7
20260508060037 6 157 0.0 0.0 0.00 0.00 0.00 99 1016.0
20260508055532 6 155 0.0 0.0 0.00 0.00 0.00 99 1015.6
20260508055029 6 155 0.0 0.0 0.00 0.00 0.00 99 1015.9
20260508054526 6 155 0.0 0.0 0.00 0.00 0.00 99 1015.7
20260508054023 6 155 0.0 0.0 0.00 0.00 0.00 99 1015.7
20260508053520 7 157 0.0 0.0 0.00 0.00 0.00 99 1015.6
20260508053018 7 158 0.0 0.0 0.00 0.00 0.00 99 1015.6
20260508052515 7 154 0.0 0.0 0.00 0.00 0.00 99 1015.5
20260508052012 7 149 0.0 0.0 0.00 0.00 0.00 99 1015.6
20260508051508 7 158 0.0 0.0 0.00 0.00 0.00 99 1015.9
20260508051003 7 153 0.0 0.0 0.00 0.00 0.00 99 1015.5
20260508050500 7 154 0.0 0.0 0.00 0.00 0.00 99 1015.5
20260508045956 7 154 0.0 0.0 0.00 0.00 0.00 99 1015.4
20260508045454 7 154 0.0 0.0 0.00 0.00 0.00 99 1015.6
20260508044951 7 157 0.0 0.0 0.00 0.00 0.00 99 1015.6
20260508044448 7 163 0.0 1.6 0.00 0.00 0.00 99 1015.6
20260508043943 7 154 0.0 0.0 0.00 0.00 0.00 99 1015.4
20260508043441 7 155 0.0 0.0 0.00 0.00 0.00 99 1015.3
20260508042937 7 155 0.0 0.0 0.00 0.00 0.00 99 1015.3
20260508042435 7 155 0.0 0.0 0.00 0.00 0.00 99 1015.4
20260508041932 7 155 0.0 0.0 0.00 0.00 0.00 99 1015.1
20260508041428 7 155 0.0 0.0 0.00 0.00 0.00 99 1015.0
20260508040925 8 155 0.0 0.0 0.00 0.00 0.00 99 1014.8
20260508040422 8 158 0.0 0.0 0.00 0.00 0.00 99 1015.0
20260508035920 8 152 0.0 0.0 0.00 0.51 0.51 99 1015.0
20260508035417 8 149 0.0 1.6 0.00 0.51 0.51 99 1015.3
20260508034913 8 153 0.0 0.0 0.00 0.51 0.51 99 1014.9
20260508034411 8 153 0.0 0.0 0.00 0.51 0.51 99 1014.9
20260508033907 8 154 0.0 0.0 0.00 0.51 0.51 99 1015.1
20260508033406 8 156 0.0 0.0 0.00 0.51 0.51 99 1014.9
20260508032903 8 156 0.0 0.0 0.00 0.51 0.51 99 1014.9
20260508032400 8 156 0.0 0.0 0.00 0.51 0.51 99 1014.9
20260508031857 8 157 0.0 0.0 0.00 0.51 0.51 99 1015.0
20260508031354 8 151 0.0 0.0 0.00 0.51 0.51 99 1014.8
20260508030850 9 151 0.0 0.0 0.00 0.51 0.51 99 1014.8
20260508030347 9 151 0.0 0.0 0.00 0.51 0.51 99 1014.7
20260508025844 9 151 0.0 0.0 0.00 0.51 0.51 99 1014.6
20260508025341 9 151 0.0 0.0 0.00 0.51 0.51 99 1014.6
20260508024838 10 151 0.0 0.0 0.00 0.51 0.51 99 1014.5
20260508024334 10 152 0.0 0.0 0.00 0.51 0.51 99 1014.4
20260508023831 10 157 0.0 0.0 0.00 0.51 0.51 99 1014.5
20260508023328 10 158 0.0 0.0 0.00 0.51 0.51 99 1014.5
20260508022824 10 158 0.0 0.0 0.00 0.51 0.51 99 1014.5
20260508022320 10 158 1.6 1.6 0.00 0.51 0.51 99 1014.3
20260508021818 10 153 0.0 0.0 0.00 0.51 0.51 99 1014.2
20260508021314 10 153 0.0 0.0 0.00 0.51 0.51 99 1014.1
20260508020810 10 153 0.0 0.0 0.00 0.51 0.51 99 1014.1
20260508020308 10 153 0.0 1.6 0.00 0.51 0.51 99 1013.8
20260508015804 10 163 0.0 0.0 0.00 0.51 0.51 99 1013.9
20260508015305 10 179 0.0 1.6 0.00 0.51 0.51 99 1013.8
20260508014758 10 151 0.0 0.0 0.00 0.51 0.51 99 1013.8
20260508014256 10 152 0.0 0.0 0.00 0.51 0.51 99 1013.4
20260508013751 11 156 0.0 0.0 0.00 0.51 0.51 99 1013.6
20260508013248 11 150 0.0 0.0 0.00 0.51 0.51 99 1013.4
20260508012745 11 148 0.0 0.0 0.00 0.51 0.51 99 1013.3
20260508012242 11 152 0.0 0.0 0.00 0.51 0.51 99 1013.2
20260508011740 11 152 0.0 0.0 0.00 0.51 0.51 99 1013.0
20260508011237 11 155 0.0 0.0 0.00 0.51 0.51 99 1013.2
20260508010734 11 155 0.0 0.0 0.00 0.51 0.51 99 1013.0
20260508010232 11 155 0.0 0.0 0.00 0.51 0.51 99 1012.9
20260508005729 12 155 0.0 0.0 0.00 0.51 0.51 99 1012.8
20260508005226 12 159 0.0 0.0 0.00 0.51 0.51 99 1013.0
20260508004721 12 163 0.0 0.0 0.00 0.51 0.51 98 1012.8
20260508004218 12 152 0.0 0.0 0.00 0.51 0.51 98 1013.0
20260508003714 12 152 0.0 0.0 0.00 0.51 0.51 98 1012.7
20260508003212 12 147 0.0 0.0 0.00 0.51 0.51 97 1012.8
20260508002708 12 152 0.0 0.0 0.00 0.51 0.51 97 1012.9
20260508002206 12 154 0.0 0.0 0.00 0.51 0.51 97 1012.9
20260508001701 12 151 0.0 0.0 0.00 0.51 0.51 96 1013.1
20260508001157 13 151 0.0 0.0 0.00 0.51 0.51 95 1012.9
20260508000654 13 159 0.0 0.0 0.00 0.51 0.51 95 1012.9
20260508000151 13 155 0.0 0.0 0.00 0.51 0.51 94 1012.8
20260507235647 13 150 0.0 0.0 0.00 0.51 0.51 93 1012.8
20260507235145 13 149 0.0 0.0 0.00 0.51 0.51 92 1012.6
20260507234642 13 153 0.0 0.0 0.00 0.51 0.51 92 1012.6
20260507234138 13 148 0.0 0.0 0.00 0.51 0.51 92 1012.8
20260507233635 13 146 0.0 0.0 0.00 0.51 0.51 92 1012.6
20260507233133 13 153 0.0 0.0 0.00 0.51 0.51 92 1012.3
20260507232629 13 147 0.0 1.6 0.00 0.51 0.51 92 1012.2
20260507232127 14 114 0.0 1.6 0.00 0.51 0.51 91 1012.2
20260507231623 14 152 0.0 0.0 0.00 0.51 0.51 91 1012.2
20260507231121 13 151 0.0 1.6 0.00 0.51 0.51 91 1012.2
20260507230617 13 150 0.0 1.6 0.00 0.51 0.51 91 1011.9
20260507230114 13 141 1.6 3.2 0.00 0.51 0.51 91 1011.8
20260507225608 14 145 0.0 4.8 0.00 0.51 0.51 90 1011.7
20260507225105 14 151 1.6 3.2 0.00 0.51 0.51 89 1011.7
20260507224601 15 143 1.6 6.4 0.00 0.51 0.51 89 1011.6
20260507224057 15 112 0.0 3.2 0.00 0.51 0.51 89 1011.7
20260507223553 15 156 0.0 3.2 0.00 0.51 0.51 88 1011.6
20260507223051 15 159 1.6 4.8 0.00 0.51 0.51 89 1011.2
20260507222548 15 149 1.6 3.2 0.00 0.51 0.51 90 1011.3
20260507222044 15 147 1.6 3.2 0.00 0.51 0.51 90 1011.4
20260507221541 15 116 0.0 1.6 0.00 0.51 0.51 90 1011.4
20260507221038 15 163 0.0 3.2 0.00 0.51 0.51 91 1011.2
20260507220535 15 150 0.0 3.2 0.00 0.51 0.51 90 1011.2
20260507220032 15 149 1.6 4.8 0.00 0.51 0.51 90 1011.1
20260507215528 15 100 1.6 4.8 0.00 0.51 0.51 90 1011.1
20260507215026 15 140 1.6 4.8 0.00 0.51 0.51 90 1011.0
20260507214523 15 93 3.2 3.2 0.00 0.51 0.51 90 1011.1
20260507214019 15 158 1.6 4.8 0.00 0.51 0.51 90 1011.0
20260507213515 15 146 0.0 6.4 0.00 0.51 0.51 89 1010.9
20260507213013 15 113 1.6 4.8 0.00 0.51 0.51 89 1010.9
20260507212508 15 127 3.2 6.4 0.00 0.51 0.51 89 1010.7
20260507212005 15 112 3.2 4.8 0.00 0.51 0.51 89 1010.6
20260507211502 15 142 3.2 4.8 0.00 0.51 0.51 91 1010.8
20260507210958 15 115 3.2 6.4 0.00 0.51 0.51 89 1010.8
20260507210455 15 137 0.0 3.2 0.00 0.51 0.51 90 1010.7
20260507205952 15 121 1.6 6.4 0.00 0.51 0.51 90 1010.8
20260507205449 15 152 0.0 6.4 0.00 0.51 0.51 90 1010.5
20260507204945 15 188 3.2 6.4 0.00 0.51 0.51 91 1010.8
20260507204442 15 148 1.6 4.8 0.00 0.51 0.51 91 1010.7
20260507203939 15 100 1.6 6.4 0.00 0.51 0.51 90 1010.7
20260507203437 15 79 3.2 4.8 0.00 0.51 0.51 91 1010.4
20260507202933 15 128 3.2 4.8 0.00 0.51 0.51 91 1010.5
20260507202430 15 90 6.4 9.7 0.00 0.51 0.51 90 1010.6
20260507201926 15 147 3.2 6.4 0.00 0.51 0.51 90 1010.6
20260507201421 16 76 1.6 9.7 0.00 0.51 0.51 89 1010.6
20260507200918 16 159 0.0 3.2 0.00 0.51 0.51 91 1010.6
20260507200414 15 145 3.2 4.8 0.00 0.51 0.51 93 1010.7
20260507195910 15 147 1.6 3.2 0.13 0.51 0.51 94 1011.0
20260507195408 14 159 1.6 11.3 0.13 0.51 0.51 94 1011.1
20260507194905 14 150 1.6 6.4 0.00 0.48 0.48 94 1011.2
20260507194401 14 151 0.0 4.8 0.00 0.48 0.48 95 1011.2
20260507193857 14 215 1.6 3.2 0.00 0.48 0.48 95 1010.9
20260507193355 14 120 1.6 9.7 0.00 0.48 0.48 95 1010.8
20260507192851 14 98 4.8 9.7 0.00 0.48 0.48 95 1010.9
20260507192347 15 126 1.6 3.2 0.00 0.48 0.48 95 1011.2
20260507191844 15 131 1.6 3.2 0.00 0.48 0.48 95 1011.2
20260507191340 15 153 1.6 11.3 0.36 0.48 0.48 94 1010.6
20260507190837 15 69 3.2 6.4 0.18 0.46 0.46 92 1010.3
20260507190335 15 162 1.6 4.8 0.00 0.43 0.43 91 1010.5
20260507185834 15 59 4.8 6.4 0.00 0.43 0.43 90 1010.5
20260507185330 16 137 3.2 4.8 0.00 0.43 0.43 90 1010.7
20260507184827 16 111 1.6 6.4 0.00 0.43 0.43 90 1011.0
20260507184326 16 131 1.6 3.2 0.00 0.43 0.43 89 1011.0
20260507183822 16 104 1.6 6.4 0.00 0.43 0.43 89 1010.8
20260507183319 16 239 3.2 6.4 0.00 0.43 0.43 89 1010.8
20260507182817 16 117 3.2 11.3 0.00 0.43 0.43 88 1010.6
20260507182312 16 300 3.2 6.4 0.00 0.43 0.43 89 1010.6
20260507181809 16 153 3.2 4.8 0.00 0.43 0.43 89 1010.6
20260507181304 16 148 1.6 4.8 0.00 0.43 0.43 90 1010.5
20260507180801 16 150 3.2 4.8 0.00 0.43 0.43 91 1010.6
20260507180258 16 106 3.2 9.7 0.00 0.43 0.43 90 1010.6
20260507175754 16 121 4.8 9.7 0.00 0.43 0.43 90 1010.6
20260507175251 17 81 4.8 11.3 0.00 0.43 0.43 89 1010.6
20260507174748 17 63 6.4 11.3 0.00 0.43 0.43 88 1010.6
20260507174246 17 107 1.6 6.4 0.00 0.43 0.43 89 1010.6
20260507173744 17 152 0.0 6.4 0.00 0.43 0.43 88 1010.5
20260507173241 18 153 4.8 9.7 0.00 0.43 0.43 88 1010.7
20260507172737 18 150 0.0 4.8 0.00 0.43 0.43 88 1010.6
20260507172234 18 95 6.4 6.4 0.00 0.43 0.43 88 1010.8
20260507171734 18 60 4.8 6.4 0.00 0.43 0.43 88 1010.8
20260507171232 18 82 0.0 4.8 0.00 0.43 0.43 89 1010.6
20260507170729 18 153 0.0 3.2 0.00 0.43 0.43 89 1010.8
20260507170225 18 157 1.6 3.2 0.00 0.43 0.43 90 1011.0
20260507165721 18 128 1.6 4.8 0.00 0.43 0.43 92 1011.0
20260507165217 17 82 1.6 6.4 0.00 0.43 0.43 93 1010.9
20260507164713 17 87 3.2 4.8 0.00 0.43 0.43 92 1010.9
20260507164211 18 91 3.2 6.4 0.00 0.43 0.43 91 1010.7
20260507163708 18 84 3.2 6.4 0.00 0.43 0.43 93 1010.6
20260507163206 17 165 4.8 6.4 0.00 0.43 0.43 93 1010.6
20260507162701 17 144 1.6 6.4 0.00 0.43 0.43 94 1010.5
20260507162157 17 156 1.6 3.2 0.00 0.43 0.43 94 1010.6
20260507161654 17 148 1.6 6.4 0.00 0.43 0.43 95 1010.5
20260507161150 17 136 3.2 6.4 0.00 0.43 0.43 96 1010.5
20260507160647 17 113 3.2 6.4 0.00 0.43 0.43 96 1010.5
20260507160143 17 130 3.2 6.4 0.00 0.43 0.43 96 1010.7
20260507155639 17 151 4.8 6.4 0.00 0.43 0.43 96 1010.9
20260507155136 17 120 0.0 3.2 0.00 0.43 0.43 96 1010.8
20260507154632 18 150 1.6 1.6 0.00 0.43 0.43 97 1011.0
20260507154130 18 149 0.0 1.6 0.00 0.43 0.43 97 1011.0
20260507153626 18 152 0.0 0.0 0.00 0.43 0.43 97 1010.7
20260507153123 18 153 0.0 0.0 0.00 0.43 0.43 97 1010.8
20260507152619 18 153 0.0 0.0 0.00 0.43 0.43 98 1011.0
20260507152115 18 152 0.0 0.0 0.00 0.43 0.43 98 1011.0
20260507151611 18 152 0.0 0.0 0.00 0.43 0.43 98 1011.4
20260507151109 18 145 0.0 1.6 0.00 0.43 0.43 98 1011.6
20260507150606 18 153 0.0 0.0 0.00 0.43 0.43 98 1011.2
20260507145557 18 168 0.0 1.6 0.00 0.43 0.43 97 1011.2
20260507145056 18 180 3.2 3.2 0.00 0.43 0.43 98 1011.0
20260507144552 18 151 0.0 0.0 0.00 0.43 0.43 99 1011.4
20260507144050 18 167 3.2 3.2 0.00 0.43 0.43 99 1011.3
20260507143546 18 140 1.6 3.2 0.00 0.43 0.43 99 1010.9
20260507143039 18 156 0.0 0.0 0.00 0.43 0.43 99 1011.0
20260507142533 17 183 0.0 0.0 0.00 0.43 0.43 99 1010.6
20260507142031 17 182 0.0 0.0 0.00 0.43 0.43 99 1010.7
20260507141527 18 157 0.0 0.0 0.00 0.43 0.43 99 1010.4
20260507141023 17 169 0.0 0.0 0.00 0.43 0.43 99 1010.8
20260507140520 17 168 1.6 1.6 0.00 0.43 0.43 99 1010.9
20260507140018 17 167 0.0 1.6 0.00 0.43 0.43 99 1010.7
20260507135514 17 155 1.6 3.2 0.00 0.43 0.43 99 1010.4
20260507135012 17 190 3.2 3.2 0.00 0.43 0.43 99 1010.8
20260507134508 17 158 0.0 0.0 0.00 0.43 0.43 99 1011.0
20260507134004 17 167 0.0 3.2 0.00 0.43 0.43 99 1010.8
20260507133500 17 156 0.0 0.0 0.00 0.43 0.43 99 1010.7
20260507132959 17 172 0.0 0.0 0.00 0.43 0.43 99 1011.0
20260507132455 17 159 0.0 0.0 0.00 0.43 0.43 99 1010.6
20260507131951 17 151 0.0 0.0 0.00 0.43 0.43 99 1010.6
20260507131448 17 159 0.0 0.0 0.00 0.43 0.43 99 1010.9
20260507130945 17 168 1.6 3.2 0.00 0.43 0.43 99 1011.1
20260507130442 16 146 1.6 1.6 0.13 0.43 0.43 99 1010.9
20260507125941 16 142 1.6 1.6 0.13 0.43 0.43 99 1010.8
20260507125438 16 145 0.0 0.0 0.18 0.41 0.41 99 1011.2
20260507124935 16 155 0.0 1.6 0.18 0.41 0.41 99 1011.6
20260507124432 16 156 0.0 0.0 0.00 0.38 0.38 99 1011.6
20260507123930 16 163 0.0 1.6 0.13 0.38 0.38 99 1011.7
20260507123427 16 161 0.0 1.6 0.13 0.38 0.38 99 1012.3
20260507122923 16 160 0.0 0.0 0.18 0.36 0.36 99 1012.3
20260507122418 16 167 0.0 3.2 0.30 0.36 0.36 99 1012.4
20260507121915 16 180 1.6 3.2 0.30 0.33 0.33 99 1012.1
20260507121410 16 155 0.0 0.0 0.18 0.30 0.30 99 1011.8
20260507120907 16 158 0.0 0.0 0.13 0.28 0.28 99 1011.8
20260507120404 16 191 1.6 3.2 0.13 0.28 0.28 99 1011.9
20260507115900 16 160 0.0 1.6 0.18 0.25 0.25 99 1011.5
20260507115356 16 155 0.0 0.0 0.30 0.25 0.25 99 1011.7
20260507114852 16 154 0.0 1.6 0.30 0.23 0.23 99 1011.6
20260507114349 16 162 0.0 1.6 0.18 0.20 0.20 99 1011.9
20260507113846 16 160 0.0 0.0 0.30 0.20 0.20 99 1011.9
20260507113343 16 159 0.0 0.0 0.30 0.18 0.18 99 1011.8
20260507112841 16 163 0.0 0.0 0.18 0.15 0.15 99 1011.6
20260507112337 16 159 0.0 0.0 0.00 0.13 0.13 99 1011.4
20260507111836 16 159 0.0 0.0 0.00 0.13 0.13 99 1011.3
20260507111332 16 156 0.0 0.0 0.00 0.13 0.13 99 1011.5
20260507110828 16 155 0.0 0.0 0.00 0.13 0.13 99 1011.3
20260507110324 16 154 0.0 0.0 0.00 0.13 0.13 99 1011.3
20260507105821 16 153 0.0 0.0 0.00 0.13 0.13 99 1011.1
20260507105318 16 153 0.0 0.0 0.00 0.13 0.13 99 1011.0
20260507104815 16 153 0.0 0.0 0.00 0.13 0.13 99 1011.2
20260507104311 16 151 0.0 0.0 0.00 0.13 0.13 99 1011.2
20260507103807 16 163 0.0 0.0 0.00 0.13 0.13 99 1011.1
20260507103304 16 158 0.0 1.6 0.00 0.13 0.13 99 1011.3
20260507102800 16 156 0.0 0.0 0.00 0.13 0.13 99 1011.2
20260507102257 16 158 0.0 0.0 0.00 0.13 0.13 99 1011.2
20260507101753 16 158 0.0 1.6 0.00 0.13 0.13 99 1011.0
20260507101248 16 157 0.0 3.2 0.00 0.13 0.13 99 1010.9
20260507100745 16 154 1.6 1.6 0.00 0.13 0.13 99 1010.8
20260507100244 16 158 1.6 1.6 0.00 0.13 0.13 99 1011.1
20260507095742 16 157 0.0 0.0 0.00 0.13 0.13 99 1011.2
20260507095238 16 160 0.0 0.0 0.00 0.13 0.13 99 1011.2
20260507094735 16 157 0.0 1.6 0.00 0.13 0.13 99 1011.2
20260507094232 16 163 1.6 3.2 0.00 0.13 0.13 99 1011.1
20260507093728 16 161 0.0 1.6 0.00 0.13 0.13 99 1011.1
20260507093227 16 160 1.6 3.2 0.00 0.13 0.13 99 1011.1
20260507092725 16 155 0.0 0.0 0.00 0.13 0.13 99 1011.1
20260507092220 16 158 0.0 0.0 0.00 0.13 0.13 99 1011.1
20260507091717 16 155 0.0 0.0 0.00 0.13 0.13 99 1010.9
20260507091214 16 154 0.0 0.0 0.00 0.13 0.13 99 1011.1